Time,TemperatureF,DewpointF,PressureIn,WindDirection,WindDirectionDegrees,WindSpeedMPH,WindSpeedGustMPH,Humidity,HourlyPrecipIn,Conditions,Clouds,dailyrainin,SoftwareType,DateUTC
2013-04-05 00:02:00,41.0,27.0,30.03,WNW,293,0.0,0.0,57,0.00,,,0.00,,2013-04-05 05:02:00,
2013-04-05 00:13:00,41.0,27.0,30.03,WNW,293,0.0,0.0,57,0.00,,,0.00,,2013-04-05 05:13:00,
2013-04-05 00:22:00,41.0,27.0,30.03,WNW,293,0.0,0.0,57,0.00,,,0.00,,2013-04-05 05:22:00,
2013-04-05 00:32:00,41.0,28.0,30.03,WNW,293,0.0,0.0,59,0.00,,,0.00,,2013-04-05 05:32:00,
2013-04-05 00:42:00,41.0,28.0,30.03,WNW,293,0.0,0.0,59,0.00,,,0.00,,2013-04-05 05:42:00,
2013-04-05 00:52:00,41.0,28.0,30.03,WNW,293,0.0,0.0,59,0.00,,,0.00,,2013-04-05 05:52:00,
2013-04-05 01:02:00,40.0,28.0,30.03,WNW,293,0.0,0.0,62,0.00,,,0.00,,2013-04-05 06:02:00,
2013-04-05 01:12:00,40.0,28.0,30.03,WNW,293,0.0,0.0,62,0.00,,,0.00,,2013-04-05 06:12:00,
2013-04-05 01:22:00,40.0,28.0,30.03,WNW,293,0.0,0.0,62,0.00,,,0.00,,2013-04-05 06:22:00,
2013-04-05 01:32:00,39.0,27.0,30.03,WNW,293,0.0,0.0,63,0.00,,,0.00,,2013-04-05 06:32:00,
2013-04-05 01:42:00,39.0,27.0,30.03,WNW,293,0.0,0.0,63,0.00,,,0.00,,2013-04-05 06:42:00,
2013-04-05 01:52:00,39.0,27.0,30.03,WNW,293,0.0,0.0,63,0.00,,,0.00,,2013-04-05 06:52:00,
2013-04-05 02:02:00,39.0,28.0,30.03,WNW,293,0.0,0.0,64,0.00,,,0.00,,2013-04-05 07:02:00,
2013-04-05 02:12:00,39.0,28.0,30.03,WNW,293,0.0,0.0,64,0.00,,,0.00,,2013-04-05 07:12:00,
2013-04-05 02:22:00,39.0,28.0,30.03,WNW,293,0.0,0.0,64,0.00,,,0.00,,2013-04-05 07:22:00,
2013-04-05 02:32:00,38.0,28.0,30.03,WNW,293,0.0,0.0,66,0.00,,,0.00,,2013-04-05 07:32:00,
2013-04-05 02:42:00,38.0,28.0,30.03,WNW,293,0.0,0.0,66,0.00,,,0.00,,2013-04-05 07:42:00,
2013-04-05 02:53:00,38.0,28.0,30.03,WNW,293,0.0,0.0,66,0.00,,,0.00,,2013-04-05 07:53:00,
2013-04-05 03:02:00,38.0,28.0,30.03,WNW,293,0.0,0.0,68,0.00,,,0.00,,2013-04-05 08:02:00,
2013-04-05 03:13:00,38.0,28.0,30.03,WNW,293,0.0,0.0,68,0.00,,,0.00,,2013-04-05 08:13:00,
2013-04-05 03:22:00,38.0,28.0,30.03,WNW,293,0.0,0.0,68,0.00,,,0.00,,2013-04-05 08:22:00,
2013-04-05 03:32:00,37.0,27.0,30.03,WNW,293,0.0,0.0,68,0.00,,,0.00,,2013-04-05 08:32:00,
2013-04-05 03:43:00,37.0,27.0,30.03,WNW,293,0.0,0.0,68,0.00,,,0.00,,2013-04-05 08:43:00,
2013-04-05 03:52:00,37.0,27.0,30.03,WNW,293,0.0,0.0,68,0.00,,,0.00,,2013-04-05 08:52:00,
2013-04-05 04:02:00,37.0,28.0,30.04,WNW,293,2.0,3.0,69,0.00,,,0.00,,2013-04-05 09:02:00,
2013-04-05 04:12:00,37.0,28.0,30.04,WNW,293,2.0,3.0,69,0.00,,,0.00,,2013-04-05 09:12:00,
2013-04-05 04:22:00,37.0,28.0,30.04,WNW,293,2.0,3.0,69,0.00,,,0.00,,2013-04-05 09:22:00,
2013-04-05 04:33:00,38.0,28.0,30.05,WNW,293,1.0,2.0,68,0.00,,,0.00,,2013-04-05 09:33:00,
2013-04-05 04:43:00,38.0,28.0,30.05,WNW,293,1.0,2.0,68,0.00,,,0.00,,2013-04-05 09:43:00,
2013-04-05 04:53:00,38.0,28.0,30.05,WNW,293,1.0,2.0,68,0.00,,,0.00,,2013-04-05 09:53:00,
2013-04-05 05:03:00,38.0,28.0,30.06,WNW,293,2.0,3.0,67,0.00,,,0.00,,2013-04-05 10:03:00,
2013-04-05 05:13:00,38.0,28.0,30.06,WNW,293,2.0,3.0,67,0.00,,,0.00,,2013-04-05 10:13:00,
2013-04-05 05:23:00,38.0,28.0,30.06,WNW,293,2.0,3.0,67,0.00,,,0.00,,2013-04-05 10:23:00,
2013-04-05 05:32:00,38.0,28.0,30.07,WNW,293,0.0,3.0,67,0.00,,,0.00,,2013-04-05 10:32:00,
2013-04-05 05:43:00,38.0,28.0,30.07,WNW,293,0.0,3.0,67,0.00,,,0.00,,2013-04-05 10:43:00,
2013-04-05 05:53:00,38.0,28.0,30.07,WNW,293,0.0,3.0,67,0.00,,,0.00,,2013-04-05 10:53:00,
2013-04-05 06:02:00,37.0,28.0,30.07,WNW,293,3.0,3.0,70,0.00,,,0.00,,2013-04-05 11:02:00,
2013-04-05 06:13:00,37.0,28.0,30.07,WNW,293,3.0,3.0,70,0.00,,,0.00,,2013-04-05 11:13:00,
2013-04-05 06:22:00,37.0,28.0,30.07,WNW,293,3.0,3.0,70,0.00,,,0.00,,2013-04-05 11:22:00,
2013-04-05 06:33:00,37.0,28.0,30.08,WNW,293,0.0,1.0,70,0.00,,,0.00,,2013-04-05 11:33:00,
2013-04-05 06:42:00,37.0,28.0,30.08,WNW,293,0.0,1.0,70,0.00,,,0.00,,2013-04-05 11:42:00,
2013-04-05 06:52:00,37.0,28.0,30.08,WNW,293,0.0,1.0,70,0.00,,,0.00,,2013-04-05 11:52:00,
2013-04-05 07:02:00,36.0,28.0,30.09,WNW,293,1.0,2.0,73,0.00,,,0.00,,2013-04-05 12:02:00,
2013-04-05 07:12:00,36.0,28.0,30.09,WNW,293,1.0,2.0,73,0.00,,,0.00,,2013-04-05 12:12:00,
2013-04-05 07:22:00,36.0,28.0,30.09,WNW,293,1.0,2.0,73,0.00,,,0.00,,2013-04-05 12:22:00,
2013-04-05 07:32:00,36.0,28.0,30.10,WNW,293,0.0,2.0,73,-99.99,,,-99.99,,2013-04-05 12:32:00,
2013-04-05 07:42:00,36.0,28.0,30.10,WNW,293,0.0,2.0,73,-99.99,,,-99.99,,2013-04-05 12:42:00,
2013-04-05 07:52:00,36.0,28.0,30.10,WNW,293,0.0,2.0,73,-99.99,,,-99.99,,2013-04-05 12:52:00,
2013-04-05 08:02:00,36.0,28.0,30.11,WNW,293,0.0,2.0,73,0.00,,,0.00,,2013-04-05 13:02:00,
2013-04-05 08:12:00,36.0,28.0,30.11,WNW,293,0.0,2.0,73,0.00,,,0.00,,2013-04-05 13:12:00,
2013-04-05 08:23:00,36.0,28.0,30.11,WNW,293,0.0,2.0,73,0.00,,,0.00,,2013-04-05 13:23:00,
2013-04-05 08:32:00,40.0,33.0,30.12,NNW,343,4.0,7.0,75,0.00,,,0.00,,2013-04-05 13:32:00,
2013-04-05 08:42:00,40.0,33.0,30.12,NNW,343,4.0,7.0,75,0.00,,,0.00,,2013-04-05 13:42:00,
2013-04-05 08:52:00,40.0,33.0,30.12,NNW,343,4.0,7.0,75,0.00,,,0.00,,2013-04-05 13:52:00,
2013-04-05 09:03:00,43.0,34.0,30.13,NNW,331,4.0,8.0,70,0.00,,,0.00,,2013-04-05 14:03:00,
2013-04-05 09:12:00,43.0,34.0,30.13,NNW,331,4.0,8.0,70,0.00,,,0.00,,2013-04-05 14:12:00,
2013-04-05 09:23:00,43.0,34.0,30.13,NNW,331,4.0,8.0,70,0.00,,,0.00,,2013-04-05 14:23:00,
2013-04-05 09:36:00,47.0,35.0,30.12,NE,34,5.0,7.0,62,0.00,,,0.00,,2013-04-05 14:36:00,
2013-04-05 09:43:00,47.0,35.0,30.12,NE,34,5.0,7.0,62,0.00,,,0.00,,2013-04-05 14:43:00,
2013-04-05 09:54:00,47.0,35.0,30.12,NE,34,5.0,7.0,62,0.00,,,0.00,,2013-04-05 14:54:00,
2013-04-05 10:02:00,49.0,34.0,30.14,North,360,5.0,8.0,57,0.00,,,0.00,,2013-04-05 15:02:00,
2013-04-05 10:12:00,49.0,34.0,30.14,North,360,5.0,8.0,57,0.00,,,0.00,,2013-04-05 15:12:00,
2013-04-05 10:23:00,49.0,34.0,30.14,North,360,5.0,8.0,57,0.00,,,0.00,,2013-04-05 15:23:00,
2013-04-05 10:33:00,50.0,34.0,30.14,NE,47,6.0,9.0,55,0.00,,,0.00,,2013-04-05 15:33:00,
2013-04-05 10:43:00,50.0,34.0,30.14,NE,47,6.0,9.0,55,0.00,,,0.00,,2013-04-05 15:43:00,
2013-04-05 10:54:00,50.0,34.0,30.14,NE,47,6.0,9.0,55,0.00,,,0.00,,2013-04-05 15:54:00,
2013-04-05 11:02:00,52.0,35.0,30.15,NE,56,6.0,12.0,52,0.00,,,0.00,,2013-04-05 16:02:00,
2013-04-05 11:13:00,52.0,35.0,30.15,NE,56,6.0,12.0,52,0.00,,,0.00,,2013-04-05 16:13:00,
2013-04-05 11:23:00,52.0,35.0,30.15,NE,56,6.0,12.0,52,0.00,,,0.00,,2013-04-05 16:23:00,
2013-04-05 11:33:00,53.0,34.0,30.15,NE,36,5.0,8.0,49,0.00,,,0.00,,2013-04-05 16:33:00,
2013-04-05 11:43:00,53.0,34.0,30.15,NE,36,5.0,8.0,49,0.00,,,0.00,,2013-04-05 16:43:00,
2013-04-05 11:53:00,53.0,34.0,30.15,NE,36,5.0,8.0,49,0.00,,,0.00,,2013-04-05 16:53:00,
2013-04-05 12:03:00,55.0,36.0,30.15,NNW,331,5.0,10.0,49,0.00,,,0.00,,2013-04-05 17:03:00,
2013-04-05 12:13:00,55.0,36.0,30.15,NNW,331,5.0,10.0,49,0.00,,,0.00,,2013-04-05 17:13:00,
2013-04-05 12:23:00,55.0,36.0,30.15,NNW,331,5.0,10.0,49,0.00,,,0.00,,2013-04-05 17:23:00,
2013-04-05 12:32:00,56.0,33.0,30.15,NNW,343,7.0,13.0,42,0.00,,,0.00,,2013-04-05 17:32:00,
2013-04-05 12:45:00,56.0,33.0,30.15,NNW,343,7.0,13.0,42,0.00,,,0.00,,2013-04-05 17:45:00,
2013-04-05 12:52:00,56.0,33.0,30.15,NNW,343,7.0,13.0,42,0.00,,,0.00,,2013-04-05 17:52:00,
2013-04-05 13:02:00,57.0,33.0,30.14,North,350,3.0,12.0,40,0.00,,,0.00,,2013-04-05 18:02:00,
2013-04-05 13:12:00,57.0,33.0,30.14,North,350,3.0,12.0,40,0.00,,,0.00,,2013-04-05 18:12:00,
2013-04-05 13:22:00,57.0,33.0,30.14,North,350,3.0,12.0,40,0.00,,,0.00,,2013-04-05 18:22:00,
2013-04-05 13:33:00,57.0,31.0,30.13,NW,322,5.0,10.0,37,0.00,,,0.00,,2013-04-05 18:33:00,
2013-04-05 13:43:00,57.0,31.0,30.13,NW,322,5.0,10.0,37,0.00,,,0.00,,2013-04-05 18:43:00,
2013-04-05 13:53:00,57.0,31.0,30.13,NW,322,5.0,10.0,37,0.00,,,0.00,,2013-04-05 18:53:00,
2013-04-05 14:02:00,59.0,30.0,30.11,North,7,5.0,11.0,33,0.00,,,0.00,,2013-04-05 19:02:00,
2013-04-05 14:13:00,59.0,30.0,30.11,North,7,5.0,11.0,33,0.00,,,0.00,,2013-04-05 19:13:00,
2013-04-05 14:23:00,59.0,30.0,30.11,North,7,5.0,11.0,33,0.00,,,0.00,,2013-04-05 19:23:00,
2013-04-05 14:33:00,59.0,30.0,30.11,North,7,5.0,11.0,33,0.00,,,0.00,,2013-04-05 19:33:00,
2013-04-05 15:22:00,61.0,29.0,30.09,NW,314,4.0,7.0,30,0.00,,,0.00,,2013-04-05 20:22:00,
2013-04-05 16:02:00,62.0,29.0,30.07,WNW,297,2.0,5.0,29,0.00,,,0.00,,2013-04-05 21:02:00,
2013-04-05 16:13:00,62.0,29.0,30.07,WNW,297,2.0,5.0,29,0.00,,,0.00,,2013-04-05 21:13:00,
2013-04-05 16:23:00,62.0,29.0,30.07,WNW,297,2.0,5.0,29,0.00,,,0.00,,2013-04-05 21:23:00,
2013-04-05 16:33:00,62.0,29.0,30.08,NW,320,3.0,7.0,29,0.00,,,0.00,,2013-04-05 21:33:00,
2013-04-05 16:44:00,62.0,29.0,30.08,NW,320,3.0,7.0,29,0.00,,,0.00,,2013-04-05 21:44:00,
2013-04-05 16:55:00,62.0,29.0,30.08,NW,320,3.0,7.0,29,0.00,,,0.00,,2013-04-05 21:55:00,
2013-04-05 17:03:00,62.0,29.0,30.08,NW,326,3.0,6.0,28,0.00,,,0.00,,2013-04-05 22:03:00,
2013-04-05 17:13:00,62.0,29.0,30.08,NW,326,3.0,6.0,28,0.00,,,0.00,,2013-04-05 22:13:00,
2013-04-05 17:23:00,62.0,29.0,30.08,NW,326,3.0,6.0,28,0.00,,,0.00,,2013-04-05 22:23:00,
2013-04-05 17:33:00,62.0,28.0,30.08,NW,313,3.0,5.0,27,0.00,,,0.00,,2013-04-05 22:33:00,
2013-04-05 17:44:00,62.0,28.0,30.08,NW,313,3.0,5.0,27,0.00,,,0.00,,2013-04-05 22:44:00,
2013-04-05 17:53:00,62.0,28.0,30.08,NW,313,3.0,5.0,27,0.00,,,0.00,,2013-04-05 22:53:00,
2013-04-05 18:02:00,62.0,28.0,30.08,NNE,33,1.0,7.0,27,0.00,,,0.00,,2013-04-05 23:02:00,
2013-04-05 18:12:00,62.0,28.0,30.08,NNE,33,1.0,7.0,27,0.00,,,0.00,,2013-04-05 23:12:00,
2013-04-05 18:22:00,62.0,28.0,30.08,NNE,33,1.0,7.0,27,0.00,,,0.00,,2013-04-05 23:22:00,
2013-04-05 18:32:00,61.0,28.0,30.08,ENE,60,4.0,8.0,28,0.00,,,0.00,,2013-04-05 23:32:00,
2013-04-05 18:43:00,61.0,28.0,30.08,ENE,60,4.0,8.0,28,0.00,,,0.00,,2013-04-05 23:43:00,
2013-04-05 18:53:00,61.0,28.0,30.08,ENE,60,4.0,8.0,28,0.00,,,0.00,,2013-04-05 23:53:00,
2013-04-05 19:02:00,61.0,28.0,30.08,ENE,68,3.0,5.0,28,0.00,,,0.00,,2013-04-06 00:02:00,
2013-04-05 19:13:00,61.0,28.0,30.08,ENE,68,3.0,5.0,28,0.00,,,0.00,,2013-04-06 00:13:00,
2013-04-05 19:23:00,61.0,28.0,30.08,ENE,68,3.0,5.0,28,0.00,,,0.00,,2013-04-06 00:23:00,
2013-04-05 19:32:00,59.0,27.0,30.08,ENE,66,2.0,5.0,29,0.00,,,0.00,,2013-04-06 00:32:00,
2013-04-05 19:43:00,59.0,27.0,30.08,ENE,66,2.0,5.0,29,0.00,,,0.00,,2013-04-06 00:43:00,
2013-04-05 19:52:00,59.0,27.0,30.08,ENE,66,2.0,5.0,29,0.00,,,0.00,,2013-04-06 00:52:00,
2013-04-05 20:02:00,58.0,28.0,30.08,ENE,66,1.0,3.0,32,0.00,,,0.00,,2013-04-06 01:02:00,
2013-04-05 20:13:00,58.0,28.0,30.08,ENE,66,1.0,3.0,32,0.00,,,0.00,,2013-04-06 01:13:00,
2013-04-05 20:22:00,58.0,28.0,30.08,ENE,66,1.0,3.0,32,0.00,,,0.00,,2013-04-06 01:22:00,
2013-04-05 20:32:00,56.0,29.0,30.08,ENE,66,2.0,4.0,36,0.00,,,0.00,,2013-04-06 01:32:00,
2013-04-05 20:43:00,56.0,29.0,30.08,ENE,66,2.0,4.0,36,0.00,,,0.00,,2013-04-06 01:43:00,
2013-04-05 20:53:00,56.0,29.0,30.08,ENE,66,2.0,4.0,36,0.00,,,0.00,,2013-04-06 01:53:00,
2013-04-05 21:02:00,55.0,30.0,30.09,ENE,65,2.0,5.0,38,0.00,,,0.00,,2013-04-06 02:02:00,
2013-04-05 21:12:00,55.0,30.0,30.09,ENE,65,2.0,5.0,38,0.00,,,0.00,,2013-04-06 02:12:00,
2013-04-05 21:22:00,55.0,30.0,30.09,ENE,65,2.0,5.0,38,0.00,,,0.00,,2013-04-06 02:22:00,
2013-04-05 21:32:00,54.0,30.0,30.10,ENE,77,4.0,7.0,40,0.00,,,0.00,,2013-04-06 02:32:00,
2013-04-05 21:43:00,54.0,30.0,30.10,ENE,77,4.0,7.0,40,0.00,,,0.00,,2013-04-06 02:43:00,
2013-04-05 21:52:00,54.0,30.0,30.10,ENE,77,4.0,7.0,40,0.00,,,0.00,,2013-04-06 02:52:00,
2013-04-05 22:02:00,54.0,30.0,30.10,ENE,71,4.0,7.0,39,0.00,,,0.00,,2013-04-06 03:02:00,
2013-04-05 22:12:00,54.0,30.0,30.10,ENE,71,4.0,7.0,39,0.00,,,0.00,,2013-04-06 03:12:00,
2013-04-05 22:22:00,54.0,30.0,30.10,ENE,71,4.0,7.0,39,0.00,,,0.00,,2013-04-06 03:22:00,
2013-04-05 22:33:00,53.0,29.0,30.09,ENE,70,6.0,11.0,40,0.00,,,0.00,,2013-04-06 03:33:00,
2013-04-05 22:43:00,53.0,29.0,30.09,ENE,70,6.0,11.0,40,0.00,,,0.00,,2013-04-06 03:43:00,
2013-04-05 22:54:00,53.0,29.0,30.09,ENE,70,6.0,11.0,40,0.00,,,0.00,,2013-04-06 03:54:00,
2013-04-05 23:03:00,52.0,29.0,30.09,ENE,70,4.0,7.0,41,0.00,,,0.00,,2013-04-06 04:03:00,
2013-04-05 23:14:00,52.0,29.0,30.09,ENE,70,4.0,7.0,41,0.00,,,0.00,,2013-04-06 04:14:00,
2013-04-05 23:23:00,52.0,29.0,30.09,ENE,70,4.0,7.0,41,0.00,,,0.00,,2013-04-06 04:23:00,
2013-04-05 23:32:00,52.0,29.0,30.09,ENE,70,4.0,7.0,41,0.00,,,0.00,,2013-04-06 04:32:00,